Time,TemperatureF,DewpointF,PressureIn,WindDirection,WindDirectionDegrees,WindSpeedMPH,WindSpeedGustMPH,Humidity,HourlyPrecipIn,Conditions,Clouds,dailyrainin,SoftwareType,DateUTC
2013-02-28 00:00:00,37.9,31.7,29.90,West,279,9.0,12.0,78,0.00,,,0.00,Wunderground v.1.13,2013-02-28 05:00:00,
2013-02-28 00:01:00,37.9,31.3,29.90,West,271,9.0,12.0,77,0.00,,,0.00,Wunderground v.1.13,2013-02-28 05:01:00,
2013-02-28 00:06:00,37.9,31.3,29.90,WSW,238,9.0,11.0,77,0.00,,,0.00,Wunderground v.1.13,2013-02-28 05:06:00,
2013-02-28 00:10:00,37.9,31.3,29.90,West,279,8.0,11.0,77,0.00,,,0.00,Wunderground v.1.13,2013-02-28 05:10:00,
2013-02-28 00:11:00,37.9,31.3,29.90,WNW,282,8.0,11.0,77,0.00,,,0.00,Wunderground v.1.13,2013-02-28 05:11:00,
2013-02-28 00:16:00,37.9,31.3,29.90,West,275,7.0,11.0,77,0.00,,,0.00,Wunderground v.1.13,2013-02-28 05:16:00,
2013-02-28 00:21:00,37.8,31.2,29.90,West,264,7.0,11.0,77,0.00,,,0.00,Wunderground v.1.13,2013-02-28 05:21:00,
2013-02-28 00:26:00,37.8,31.2,29.90,West,261,8.0,11.0,77,0.00,,,0.00,Wunderground v.1.13,2013-02-28 05:26:00,
2013-02-28 00:32:00,37.8,31.2,29.90,West,269,8.0,13.0,77,0.00,,,0.00,Wunderground v.1.13,2013-02-28 05:32:00,
2013-02-28 00:37:00,37.8,31.2,29.90,West,275,8.0,14.0,77,0.00,,,0.00,Wunderground v.1.13,2013-02-28 05:37:00,
2013-02-28 00:42:00,37.9,31.0,29.90,WSW,245,8.0,11.0,76,0.00,,,0.00,Wunderground v.1.13,2013-02-28 05:42:00,
2013-02-28 00:47:00,37.9,31.3,29.90,WSW,258,7.0,11.0,77,0.00,,,0.00,Wunderground v.1.13,2013-02-28 05:47:00,
2013-02-28 00:52:00,37.8,31.2,29.90,SW,232,7.0,11.0,77,0.00,,,0.00,Wunderground v.1.13,2013-02-28 05:52:00,
2013-02-28 00:58:00,37.8,30.9,29.90,West,264,8.0,11.0,76,0.00,,,0.00,Wunderground v.1.13,2013-02-28 05:58:00,
2013-02-28 01:03:00,37.8,30.9,29.90,WSW,257,7.0,11.0,76,0.00,,,0.00,Wunderground v.1.13,2013-02-28 06:03:00,
2013-02-28 01:08:00,37.8,30.9,29.90,West,267,8.0,11.0,76,0.00,,,0.00,Wunderground v.1.13,2013-02-28 06:08:00,
2013-02-28 01:13:00,37.8,30.9,29.90,West,267,8.0,11.0,76,0.00,,,0.00,Wunderground v.1.13,2013-02-28 06:13:00,
2013-02-28 01:18:00,37.7,30.5,29.89,WSW,248,7.0,11.0,75,0.00,,,0.00,Wunderground v.1.13,2013-02-28 06:18:00,
2013-02-28 01:24:00,37.8,30.3,29.89,WSW,245,9.0,13.0,74,0.00,,,0.00,Wunderground v.1.13,2013-02-28 06:24:00,
2013-02-28 01:29:00,37.8,30.3,29.89,West,275,9.0,12.0,74,0.00,,,0.00,Wunderground v.1.13,2013-02-28 06:29:00,
2013-02-28 01:34:00,37.8,30.3,29.89,West,263,9.0,14.0,74,0.00,,,0.00,Wunderground v.1.13,2013-02-28 06:34:00,
2013-02-28 01:39:00,37.8,30.3,29.90,West,261,10.0,15.0,74,0.00,,,0.00,Wunderground v.1.13,2013-02-28 06:39:00,
2013-02-28 01:44:00,37.8,30.3,29.89,WSW,257,10.0,11.0,74,0.00,,,0.00,Wunderground v.1.13,2013-02-28 06:44:00,
2013-02-28 01:50:00,37.7,30.5,29.89,West,272,10.0,11.0,75,0.00,,,0.00,Wunderground v.1.13,2013-02-28 06:50:00,
2013-02-28 01:55:00,37.5,30.3,29.89,WSW,253,11.0,12.0,75,0.00,,,0.00,Wunderground v.1.13,2013-02-28 06:55:00,
2013-02-28 02:00:00,37.4,30.5,29.89,West,273,11.0,16.0,76,0.00,,,0.00,Wunderground v.1.13,2013-02-28 07:00:00,
2013-02-28 02:05:00,37.2,30.3,29.88,West,263,12.0,12.0,76,0.00,,,0.00,Wunderground v.1.13,2013-02-28 07:05:00,
2013-02-28 02:10:00,37.1,30.6,29.89,West,263,11.0,12.0,77,0.00,,,0.00,Wunderground v.1.13,2013-02-28 07:10:00,
2013-02-28 02:16:00,36.9,30.4,29.89,WSW,258,12.0,17.0,77,0.00,,,0.00,Wunderground v.1.13,2013-02-28 07:16:00,
2013-02-28 02:21:00,36.8,30.6,29.89,WSW,244,12.0,16.0,78,0.00,,,0.00,Wunderground v.1.13,2013-02-28 07:21:00,
2013-02-28 02:26:00,36.6,30.7,29.89,WNW,284,11.0,14.0,79,0.00,,,0.00,Wunderground v.1.13,2013-02-28 07:26:00,
2013-02-28 02:31:00,36.5,30.6,29.88,West,267,11.0,14.0,79,0.00,,,0.00,Wunderground v.1.13,2013-02-28 07:31:00,
2013-02-28 02:36:00,36.4,30.5,29.89,WSW,250,10.0,12.0,79,0.00,,,0.00,Wunderground v.1.13,2013-02-28 07:36:00,
2013-02-28 02:41:00,36.4,30.8,29.89,West,272,9.0,12.0,80,0.00,,,0.00,Wunderground v.1.13,2013-02-28 07:41:00,
2013-02-28 02:46:00,36.3,30.7,29.89,West,272,9.0,11.0,80,0.00,,,0.00,Wunderground v.1.13,2013-02-28 07:46:00,
2013-02-28 02:52:00,36.2,30.6,29.89,West,273,9.0,11.0,80,0.00,,,0.00,Wunderground v.1.13,2013-02-28 07:52:00,
2013-02-28 02:57:00,36.2,30.9,29.89,West,269,8.0,11.0,81,0.00,,,0.00,Wunderground v.1.13,2013-02-28 07:57:00,
2013-02-28 03:02:00,36.1,30.8,29.89,West,279,7.0,11.0,81,0.00,,,0.00,Wunderground v.1.13,2013-02-28 08:02:00,
2013-02-28 03:08:00,36.0,30.4,29.89,West,276,6.0,11.0,80,0.00,,,0.00,Wunderground v.1.13,2013-02-28 08:08:00,
2013-02-28 03:13:00,35.9,30.3,29.89,West,274,6.0,11.0,80,0.00,,,0.00,Wunderground v.1.13,2013-02-28 08:13:00,
2013-02-28 03:18:00,35.9,30.3,29.89,West,271,6.0,11.0,80,0.00,,,0.00,Wunderground v.1.13,2013-02-28 08:18:00,
2013-02-28 03:23:00,35.9,30.3,29.88,West,274,6.0,11.0,80,0.00,,,0.00,Wunderground v.1.13,2013-02-28 08:23:00,
2013-02-28 03:28:00,35.8,30.2,29.88,West,277,6.0,11.0,80,0.00,,,0.00,Wunderground v.1.13,2013-02-28 08:28:00,
2013-02-28 03:33:00,35.8,30.2,29.88,West,269,6.0,11.0,80,0.00,,,0.00,Wunderground v.1.13,2013-02-28 08:33:00,
2013-02-28 03:39:00,35.7,30.1,29.88,West,273,5.0,11.0,80,0.00,,,0.00,Wunderground v.1.13,2013-02-28 08:39:00,
2013-02-28 03:45:00,35.6,30.3,29.88,West,277,5.0,11.0,81,0.00,,,0.00,Wunderground v.1.13,2013-02-28 08:45:00,
2013-02-28 03:50:00,35.7,30.4,29.88,West,269,5.0,11.0,81,0.00,,,0.00,Wunderground v.1.13,2013-02-28 08:50:00,
2013-02-28 03:55:00,35.6,30.6,29.88,WSW,249,5.0,11.0,82,0.00,,,0.00,Wunderground v.1.13,2013-02-28 08:55:00,
2013-02-28 04:00:00,35.6,30.6,29.88,West,269,5.0,11.0,82,0.00,,,0.00,Wunderground v.1.13,2013-02-28 09:00:00,
2013-02-28 04:05:00,35.5,30.5,29.88,WSW,245,6.0,11.0,82,0.00,,,0.00,Wunderground v.1.13,2013-02-28 09:05:00,
2013-02-28 04:11:00,35.5,30.2,29.88,West,268,6.0,11.0,81,0.00,,,0.00,Wunderground v.1.13,2013-02-28 09:11:00,
2013-02-28 04:16:00,35.4,29.8,29.88,WSW,251,8.0,11.0,80,0.00,,,0.00,Wunderground v.1.13,2013-02-28 09:16:00,
2013-02-28 04:21:00,35.5,29.3,29.89,West,267,8.0,12.0,78,0.00,,,0.00,Wunderground v.1.13,2013-02-28 09:21:00,
2013-02-28 04:26:00,35.5,29.0,29.88,West,271,8.0,11.0,77,0.00,,,0.00,Wunderground v.1.13,2013-02-28 09:26:00,
2013-02-28 04:31:00,35.5,29.0,29.88,West,263,8.0,12.0,77,0.00,,,0.00,Wunderground v.1.13,2013-02-28 09:31:00,
2013-02-28 04:36:00,35.5,29.0,29.88,WSW,251,7.0,11.0,77,0.00,,,0.00,Wunderground v.1.13,2013-02-28 09:36:00,
2013-02-28 04:42:00,35.5,28.7,29.89,WSW,250,7.0,13.0,76,0.00,,,0.00,Wunderground v.1.13,2013-02-28 09:42:00,
2013-02-28 04:47:00,35.5,28.7,29.89,WSW,247,8.0,11.0,76,0.00,,,0.00,Wunderground v.1.13,2013-02-28 09:47:00,
2013-02-28 04:52:00,35.5,28.7,29.89,West,264,8.0,13.0,76,0.00,,,0.00,Wunderground v.1.13,2013-02-28 09:52:00,
2013-02-28 04:57:00,35.5,29.0,29.89,WSW,255,7.0,11.0,77,0.00,,,0.00,Wunderground v.1.13,2013-02-28 09:57:00,
2013-02-28 05:02:00,35.4,28.9,29.89,West,263,7.0,11.0,77,0.00,,,0.00,Wunderground v.1.13,2013-02-28 10:02:00,
2013-02-28 05:08:00,35.4,28.9,29.89,West,264,7.0,11.0,77,0.00,,,0.00,Wunderground v.1.13,2013-02-28 10:08:00,
2013-02-28 05:13:00,35.3,28.8,29.89,WSW,255,8.0,11.0,77,0.00,,,0.00,Wunderground v.1.13,2013-02-28 10:13:00,
2013-02-28 05:18:00,35.3,28.8,29.89,WSW,256,7.0,11.0,77,0.00,,,0.00,Wunderground v.1.13,2013-02-28 10:18:00,
2013-02-28 05:23:00,35.3,28.8,29.89,West,262,6.0,11.0,77,0.00,,,0.00,Wunderground v.1.13,2013-02-28 10:23:00,
2013-02-28 05:28:00,35.3,28.8,29.90,West,276,6.0,11.0,77,0.00,,,0.00,Wunderground v.1.13,2013-02-28 10:28:00,
2013-02-28 05:34:00,35.3,28.8,29.90,West,274,7.0,11.0,77,0.00,,,0.00,Wunderground v.1.13,2013-02-28 10:34:00,
2013-02-28 05:39:00,35.3,28.8,29.90,West,263,7.0,11.0,77,0.00,,,0.00,Wunderground v.1.13,2013-02-28 10:39:00,
2013-02-28 05:44:00,35.3,28.8,29.90,West,261,8.0,14.0,77,0.00,,,0.00,Wunderground v.1.13,2013-02-28 10:44:00,
2013-02-28 05:49:00,35.3,28.8,29.90,West,263,6.0,11.0,77,0.00,,,0.00,Wunderground v.1.13,2013-02-28 10:49:00,
2013-02-28 05:54:00,35.3,28.8,29.90,West,265,5.0,11.0,77,0.00,,,0.00,Wunderground v.1.13,2013-02-28 10:54:00,
2013-02-28 05:59:00,35.3,28.8,29.90,West,264,5.0,11.0,77,0.00,,,0.00,Wunderground v.1.13,2013-02-28 10:59:00,
2013-02-28 06:05:00,35.3,28.8,29.90,West,269,7.0,11.0,77,0.00,,,0.00,Wunderground v.1.13,2013-02-28 11:05:00,
2013-02-28 06:10:00,35.3,28.8,29.90,WSW,246,8.0,8.0,77,0.00,,,0.00,Wunderground v.1.13,2013-02-28 11:10:00,
2013-02-28 06:15:00,35.4,28.9,29.89,WSW,237,7.0,11.0,77,0.00,,,0.00,Wunderground v.1.13,2013-02-28 11:15:00,
2013-02-28 06:20:00,35.4,28.9,29.90,West,264,7.0,11.0,77,0.00,,,0.00,Wunderground v.1.13,2013-02-28 11:20:00,
2013-02-28 06:26:00,35.4,28.9,29.90,WSW,238,8.0,13.0,77,0.00,,,0.00,Wunderground v.1.13,2013-02-28 11:26:00,
2013-02-28 06:31:00,35.4,28.9,29.90,WSW,255,7.0,11.0,77,0.00,,,0.00,Wunderground v.1.13,2013-02-28 11:31:00,
2013-02-28 06:36:00,35.4,28.6,29.90,West,265,7.0,11.0,76,0.00,,,0.00,Wunderground v.1.13,2013-02-28 11:36:00,
2013-02-28 06:42:00,35.4,28.6,29.90,West,271,8.0,14.0,76,0.00,,,0.00,Wunderground v.1.13,2013-02-28 11:42:00,
2013-02-28 06:47:00,35.5,28.7,29.90,WSW,239,8.0,10.0,76,0.00,,,0.00,Wunderground v.1.13,2013-02-28 11:47:00,
2013-02-28 06:52:00,35.4,28.6,29.90,WSW,254,8.0,11.0,76,0.00,,,0.00,Wunderground v.1.13,2013-02-28 11:52:00,
2013-02-28 06:57:00,35.4,28.9,29.90,WSW,251,7.0,11.0,77,0.00,,,0.00,Wunderground v.1.13,2013-02-28 11:57:00,
2013-02-28 07:02:00,35.4,28.9,29.90,West,273,7.0,11.0,77,0.00,,,0.00,Wunderground v.1.13,2013-02-28 12:02:00,
2013-02-28 07:07:00,35.3,28.8,29.90,West,269,7.0,11.0,77,0.00,,,0.00,Wunderground v.1.13,2013-02-28 12:07:00,
2013-02-28 07:12:00,35.3,28.8,29.90,West,272,6.0,11.0,77,0.00,,,0.00,Wunderground v.1.13,2013-02-28 12:12:00,
2013-02-28 07:18:00,35.4,28.9,29.91,West,271,5.0,11.0,77,0.00,,,0.00,Wunderground v.1.13,2013-02-28 12:18:00,
2013-02-28 07:24:00,35.3,28.8,29.91,West,276,3.0,11.0,77,0.00,,,0.00,Wunderground v.1.13,2013-02-28 12:24:00,
2013-02-28 07:29:00,35.3,28.8,29.91,West,275,6.0,13.0,77,0.00,,,0.00,Wunderground v.1.13,2013-02-28 12:29:00,
2013-02-28 07:35:00,35.3,28.8,29.91,West,272,6.0,6.0,77,0.00,,,0.00,Wunderground v.1.13,2013-02-28 12:35:00,
2013-02-28 07:41:00,35.4,29.2,29.91,WNW,290,6.0,11.0,78,0.00,,,0.00,Wunderground v.1.13,2013-02-28 12:41:00,
2013-02-28 07:46:00,35.4,29.2,29.91,West,273,8.0,11.0,78,0.00,,,0.00,Wunderground v.1.13,2013-02-28 12:46:00,
2013-02-28 07:51:00,35.3,29.1,29.91,West,275,8.0,14.0,78,0.00,,,0.00,Wunderground v.1.13,2013-02-28 12:51:00,
2013-02-28 07:56:00,35.1,29.2,29.92,WNW,292,10.0,11.0,79,0.00,,,0.00,Wunderground v.1.13,2013-02-28 12:56:00,
2013-02-28 08:02:00,34.4,29.5,29.92,WNW,296,11.0,11.0,82,0.00,,,0.00,Wunderground v.1.13,2013-02-28 13:02:00,
2013-02-28 08:08:00,33.8,29.5,29.93,WNW,296,8.0,11.0,84,0.00,,,0.00,Wunderground v.1.13,2013-02-28 13:08:00,
2013-02-28 08:13:00,33.5,29.2,29.93,West,281,7.0,11.0,84,0.00,,,0.00,Wunderground v.1.13,2013-02-28 13:13:00,
2013-02-28 08:18:00,33.3,29.0,29.93,WNW,296,7.0,13.0,84,0.00,,,0.00,Wunderground v.1.13,2013-02-28 13:18:00,
2013-02-28 08:24:00,33.2,28.9,29.93,West,281,8.0,14.0,84,0.00,,,0.00,Wunderground v.1.13,2013-02-28 13:24:00,
2013-02-28 08:29:00,33.2,29.2,29.94,WNW,286,8.0,11.0,85,0.00,,,0.00,Wunderground v.1.13,2013-02-28 13:29:00,
2013-02-28 08:35:00,33.2,29.2,29.94,West,279,6.0,6.0,85,0.00,,,0.00,Wunderground v.1.13,2013-02-28 13:35:00,
2013-02-28 08:40:00,33.1,29.1,29.94,West,281,6.0,6.0,85,0.00,,,0.00,Wunderground v.1.13,2013-02-28 13:40:00,
2013-02-28 08:45:00,33.2,29.2,29.94,West,276,7.0,11.0,85,0.00,,,0.00,Wunderground v.1.13,2013-02-28 13:45:00,
2013-02-28 08:50:00,33.3,29.6,29.94,WNW,286,8.0,8.0,86,0.00,,,0.00,Wunderground v.1.13,2013-02-28 13:50:00,
2013-02-28 08:55:00,33.5,29.8,29.95,West,279,8.0,8.0,86,0.00,,,0.00,Wunderground v.1.13,2013-02-28 13:55:00,
2013-02-28 09:01:00,33.7,30.0,29.95,West,277,7.0,11.0,86,0.00,,,0.00,Wunderground v.1.13,2013-02-28 14:01:00,
2013-02-28 09:06:00,33.8,30.1,29.95,WNW,284,6.0,11.0,86,0.00,,,0.00,Wunderground v.1.13,2013-02-28 14:06:00,
2013-02-28 09:11:00,33.7,29.7,29.95,WNW,283,7.0,11.0,85,0.00,,,0.00,Wunderground v.1.13,2013-02-28 14:11:00,
2013-02-28 09:16:00,33.5,29.8,29.95,WNW,292,8.0,11.0,86,0.00,,,0.00,Wunderground v.1.13,2013-02-28 14:16:00,
2013-02-28 09:21:00,33.5,29.8,29.95,WNW,294,7.0,11.0,86,0.00,,,0.00,Wunderground v.1.13,2013-02-28 14:21:00,
2013-02-28 09:26:00,33.5,29.8,29.95,West,275,6.0,11.0,86,0.00,,,0.00,Wunderground v.1.13,2013-02-28 14:26:00,
2013-02-28 09:32:00,33.4,29.7,29.95,WNW,295,6.0,11.0,86,0.00,,,0.00,Wunderground v.1.13,2013-02-28 14:32:00,
2013-02-28 09:37:00,33.3,29.6,29.95,NW,321,7.0,11.0,86,0.00,,,0.00,Wunderground v.1.13,2013-02-28 14:37:00,
2013-02-28 09:42:00,32.8,29.1,29.95,NW,314,8.0,11.0,86,0.00,,,0.00,Wunderground v.1.13,2013-02-28 14:42:00,
2013-02-28 09:47:00,32.5,29.1,29.96,WNW,301,6.0,11.0,87,0.00,,,0.00,Wunderground v.1.13,2013-02-28 14:47:00,
2013-02-28 09:52:00,32.4,29.0,29.96,NW,304,5.0,11.0,87,0.00,,,0.00,Wunderground v.1.13,2013-02-28 14:52:00,
2013-02-28 09:58:00,32.3,29.1,29.96,NW,306,6.0,11.0,88,0.00,,,0.00,Wunderground v.1.13,2013-02-28 14:58:00,
2013-02-28 10:03:00,32.2,29.0,29.96,WNW,300,7.0,11.0,88,0.00,,,0.00,Wunderground v.1.13,2013-02-28 15:03:00,
2013-02-28 10:08:00,32.3,29.1,29.96,NW,309,8.0,11.0,88,0.00,,,0.00,Wunderground v.1.13,2013-02-28 15:08:00,
2013-02-28 10:13:00,32.5,29.3,29.96,WNW,292,7.0,11.0,88,0.00,,,0.00,Wunderground v.1.13,2013-02-28 15:13:00,
2013-02-28 10:18:00,32.7,29.8,29.96,NW,315,7.0,11.0,89,0.00,,,0.00,Wunderground v.1.13,2013-02-28 15:18:00,
2013-02-28 10:24:00,33.1,29.9,29.96,WNW,293,7.0,11.0,88,0.00,,,0.00,Wunderground v.1.13,2013-02-28 15:24:00,
2013-02-28 10:29:00,33.5,30.6,29.97,WNW,290,7.0,11.0,89,0.00,,,0.00,Wunderground v.1.13,2013-02-28 15:29:00,
2013-02-28 10:34:00,33.8,30.6,29.97,WNW,294,8.0,11.0,88,0.00,,,0.00,Wunderground v.1.13,2013-02-28 15:34:00,
2013-02-28 10:40:00,34.3,30.8,29.97,WNW,288,8.0,8.0,87,0.00,,,0.00,Wunderground v.1.13,2013-02-28 15:40:00,
2013-02-28 10:45:00,34.4,30.4,29.97,WNW,285,8.0,11.0,85,0.00,,,0.00,Wunderground v.1.13,2013-02-28 15:45:00,
2013-02-28 10:50:00,34.4,30.1,29.97,NW,304,10.0,11.0,84,0.00,,,0.00,Wunderground v.1.13,2013-02-28 15:50:00,
2013-02-28 10:55:00,34.7,30.1,29.96,WNW,302,11.0,12.0,83,0.00,,,0.00,Wunderground v.1.13,2013-02-28 15:55:00,
2013-02-28 11:00:00,34.7,29.5,29.96,WNW,296,12.0,14.0,81,0.00,,,0.00,Wunderground v.1.13,2013-02-28 16:00:00,
2013-02-28 11:06:00,35.0,29.8,29.97,NW,325,10.0,11.0,81,0.00,,,0.00,Wunderground v.1.13,2013-02-28 16:06:00,
2013-02-28 11:11:00,35.3,29.7,29.97,WNW,302,9.0,10.0,80,0.00,,,0.00,Wunderground v.1.13,2013-02-28 16:11:00,
2013-02-28 11:16:00,35.7,29.8,29.97,WNW,296,10.0,11.0,79,0.00,,,0.00,Wunderground v.1.13,2013-02-28 16:16:00,
2013-02-28 11:21:00,36.0,29.8,29.97,WNW,295,10.0,14.0,78,0.00,,,0.00,Wunderground v.1.13,2013-02-28 16:21:00,
2013-02-28 11:26:00,36.3,30.1,29.97,West,281,10.0,12.0,78,0.00,,,0.00,Wunderground v.1.13,2013-02-28 16:26:00,
2013-02-28 11:31:00,36.6,29.7,29.97,WNW,289,10.0,11.0,76,0.00,,,0.00,Wunderground v.1.13,2013-02-28 16:31:00,
2013-02-28 11:37:00,36.8,29.3,29.97,WNW,291,9.0,11.0,74,0.00,,,0.00,Wunderground v.1.13,2013-02-28 16:37:00,
2013-02-28 11:42:00,36.9,29.1,29.97,West,281,8.0,11.0,73,0.00,,,0.00,Wunderground v.1.13,2013-02-28 16:42:00,
2013-02-28 11:47:00,37.0,28.8,29.97,WNW,290,9.0,19.0,72,0.00,,,0.00,Wunderground v.1.13,2013-02-28 16:47:00,
2013-02-28 11:52:00,37.0,28.5,29.97,NW,313,12.0,16.0,71,0.00,,,0.00,Wunderground v.1.13,2013-02-28 16:52:00,
2013-02-28 11:58:00,37.4,28.9,29.97,NW,324,12.0,14.0,71,0.00,,,0.00,Wunderground v.1.13,2013-02-28 16:58:00,
2013-02-28 12:03:00,37.8,28.5,29.97,NW,313,11.0,14.0,69,0.00,,,0.00,Wunderground v.1.13,2013-02-28 17:03:00,
2013-02-28 12:08:00,38.3,29.4,29.97,NW,307,12.0,14.0,70,0.00,,,0.00,Wunderground v.1.13,2013-02-28 17:08:00,
2013-02-28 12:13:00,38.0,28.4,29.98,NW,308,13.0,17.0,68,0.00,,,0.00,Wunderground v.1.13,2013-02-28 17:13:00,
2013-02-28 12:18:00,37.2,27.2,29.97,NW,315,13.0,14.0,67,0.00,,,0.00,Wunderground v.1.13,2013-02-28 17:18:00,
2013-02-28 12:24:00,36.9,27.3,29.98,WNW,292,11.0,14.0,68,0.00,,,0.00,Wunderground v.1.13,2013-02-28 17:24:00,
2013-02-28 12:29:00,36.9,27.3,29.98,WNW,286,12.0,13.0,68,0.00,,,0.00,Wunderground v.1.13,2013-02-28 17:29:00,
2013-02-28 12:34:00,37.1,27.5,29.98,WNW,297,12.0,14.0,68,0.00,,,0.00,Wunderground v.1.13,2013-02-28 17:34:00,
2013-02-28 12:39:00,37.1,27.2,29.98,NW,304,12.0,14.0,67,0.00,,,0.00,Wunderground v.1.13,2013-02-28 17:39:00,
2013-02-28 12:44:00,37.2,27.2,29.98,West,274,12.0,16.0,67,0.00,,,0.00,Wunderground v.1.13,2013-02-28 17:44:00,
2013-02-28 12:50:00,37.5,27.5,29.98,West,271,10.0,10.0,67,0.00,,,0.00,Wunderground v.1.13,2013-02-28 17:50:00,
2013-02-28 12:55:00,37.9,27.5,29.97,NNW,331,9.0,9.0,66,0.00,,,0.00,Wunderground v.1.13,2013-02-28 17:55:00,
2013-02-28 13:00:00,37.8,27.1,29.97,WNW,288,10.0,11.0,65,0.00,,,0.00,Wunderground v.1.13,2013-02-28 18:00:00,
2013-02-28 13:05:00,37.9,27.2,29.97,West,265,10.0,13.0,65,0.00,,,0.00,Wunderground v.1.13,2013-02-28 18:05:00,
2013-02-28 13:10:00,38.4,27.7,29.97,West,271,9.0,9.0,65,0.00,,,0.00,Wunderground v.1.13,2013-02-28 18:10:00,
2013-02-28 13:16:00,38.6,27.1,29.97,WNW,288,9.0,16.0,63,0.00,,,0.00,Wunderground v.1.13,2013-02-28 18:16:00,
2013-02-28 13:21:00,38.6,27.1,29.97,West,279,10.0,10.0,63,0.00,,,0.00,Wunderground v.1.13,2013-02-28 18:21:00,
2013-02-28 13:26:00,38.6,26.7,29.97,WNW,284,10.0,11.0,62,0.00,,,0.00,Wunderground v.1.13,2013-02-28 18:26:00,
2013-02-28 13:31:00,38.4,26.9,29.98,West,281,10.0,12.0,63,0.00,,,0.00,Wunderground v.1.13,2013-02-28 18:31:00,
2013-02-28 13:36:00,37.9,26.4,29.98,West,276,10.0,12.0,63,0.00,,,0.00,Wunderground v.1.13,2013-02-28 18:36:00,
2013-02-28 13:42:00,37.8,26.7,29.98,WNW,292,10.0,11.0,64,0.00,,,0.00,Wunderground v.1.13,2013-02-28 18:42:00,
2013-02-28 13:47:00,38.0,26.5,29.98,West,263,9.0,11.0,63,0.00,,,0.00,Wunderground v.1.13,2013-02-28 18:47:00,
2013-02-28 13:52:00,38.2,26.7,29.98,WNW,294,8.0,13.0,63,0.00,,,0.00,Wunderground v.1.13,2013-02-28 18:52:00,
2013-02-28 13:57:00,37.9,26.0,29.98,WNW,286,10.0,15.0,62,0.00,,,0.00,Wunderground v.1.13,2013-02-28 18:57:00,
2013-02-28 14:02:00,37.7,25.8,29.98,West,268,11.0,14.0,62,0.00,,,0.00,Wunderground v.1.13,2013-02-28 19:02:00,
2013-02-28 14:08:00,38.0,26.5,29.98,WNW,293,9.0,16.0,63,0.00,,,0.00,Wunderground v.1.13,2013-02-28 19:08:00,
2013-02-28 14:13:00,37.8,25.9,29.98,WNW,302,10.0,14.0,62,0.00,,,0.00,Wunderground v.1.13,2013-02-28 19:13:00,
2013-02-28 14:18:00,37.6,25.7,29.98,WNW,287,11.0,12.0,62,0.00,,,0.00,Wunderground v.1.13,2013-02-28 19:18:00,
2013-02-28 14:23:00,37.7,25.8,29.98,West,281,10.0,11.0,62,0.00,,,0.00,Wunderground v.1.13,2013-02-28 19:23:00,
2013-02-28 14:28:00,37.8,25.5,29.98,WNW,293,11.0,13.0,61,0.00,,,0.00,Wunderground v.1.13,2013-02-28 19:28:00,
2013-02-28 14:34:00,38.2,26.3,29.98,WNW,283,12.0,13.0,62,0.00,,,0.00,Wunderground v.1.13,2013-02-28 19:34:00,
2013-02-28 14:39:00,38.6,26.7,29.98,WNW,291,10.0,12.0,62,0.00,,,0.00,Wunderground v.1.13,2013-02-28 19:39:00,
2013-02-28 14:44:00,38.4,25.7,29.98,West,277,10.0,14.0,60,0.00,,,0.00,Wunderground v.1.13,2013-02-28 19:44:00,
2013-02-28 14:49:00,38.4,26.1,29.98,West,269,10.0,11.0,61,0.00,,,0.00,Wunderground v.1.13,2013-02-28 19:49:00,
2013-02-28 14:54:00,38.6,26.3,29.98,West,278,8.0,12.0,61,0.00,,,0.00,Wunderground v.1.13,2013-02-28 19:54:00,
2013-02-28 15:00:00,38.7,26.4,29.98,West,261,7.0,11.0,61,0.00,,,0.00,Wunderground v.1.13,2013-02-28 20:00:00,
2013-02-28 15:05:00,38.7,26.4,29.98,West,270,7.0,11.0,61,0.00,,,0.00,Wunderground v.1.13,2013-02-28 20:05:00,
2013-02-28 15:10:00,38.6,26.7,29.98,WSW,249,6.0,6.0,62,0.00,,,0.00,Wunderground v.1.13,2013-02-28 20:10:00,
2013-02-28 15:15:00,38.4,26.9,29.99,WSW,248,6.0,11.0,63,0.00,,,0.00,Wunderground v.1.13,2013-02-28 20:15:00,
2013-02-28 15:21:00,38.0,26.5,29.99,West,259,7.0,11.0,63,0.00,,,0.00,Wunderground v.1.13,2013-02-28 20:21:00,
2013-02-28 15:26:00,37.8,26.3,29.99,WSW,255,8.0,11.0,63,0.00,,,0.00,Wunderground v.1.13,2013-02-28 20:26:00,
2013-02-28 15:31:00,37.6,26.5,29.99,West,272,7.0,10.0,64,0.00,,,0.00,Wunderground v.1.13,2013-02-28 20:31:00,
2013-02-28 15:37:00,37.5,26.4,30.00,WSW,252,8.0,11.0,64,0.00,,,0.00,Wunderground v.1.13,2013-02-28 20:37:00,
2013-02-28 15:42:00,37.4,25.9,30.00,West,259,9.0,15.0,63,0.00,,,0.00,Wunderground v.1.13,2013-02-28 20:42:00,
2013-02-28 15:47:00,37.2,25.8,30.00,WSW,252,9.0,14.0,63,0.00,,,0.00,Wunderground v.1.13,2013-02-28 20:47:00,
2013-02-28 15:52:00,37.1,26.0,30.00,West,275,9.0,12.0,64,0.00,,,0.00,Wunderground v.1.13,2013-02-28 20:52:00,
2013-02-28 15:57:00,36.9,25.9,30.00,WSW,254,10.0,11.0,64,0.00,,,0.00,Wunderground v.1.13,2013-02-28 20:57:00,
2013-02-28 16:03:00,36.8,26.1,30.00,West,263,9.0,14.0,65,0.00,,,0.00,Wunderground v.1.13,2013-02-28 21:03:00,
2013-02-28 16:08:00,36.8,26.1,30.00,West,273,8.0,11.0,65,0.00,,,0.00,Wunderground v.1.13,2013-02-28 21:08:00,
2013-02-28 16:13:00,36.8,26.1,30.01,WSW,257,8.0,11.0,65,0.00,,,0.00,Wunderground v.1.13,2013-02-28 21:13:00,
2013-02-28 16:18:00,36.8,25.8,30.01,West,269,10.0,11.0,64,0.00,,,0.00,Wunderground v.1.13,2013-02-28 21:18:00,
2013-02-28 16:23:00,36.8,26.1,30.01,West,259,9.0,11.0,65,0.00,,,0.00,Wunderground v.1.13,2013-02-28 21:23:00,
2013-02-28 16:28:00,36.8,25.8,30.01,West,269,9.0,11.0,64,0.00,,,0.00,Wunderground v.1.13,2013-02-28 21:28:00,
2013-02-28 16:34:00,36.8,25.8,30.01,SW,222,8.0,15.0,64,0.00,,,0.00,Wunderground v.1.13,2013-02-28 21:34:00,
2013-02-28 16:39:00,36.8,26.1,30.02,WSW,254,8.0,11.0,65,0.00,,,0.00,Wunderground v.1.13,2013-02-28 21:39:00,
2013-02-28 16:44:00,36.8,25.8,30.02,West,272,8.0,11.0,64,0.00,,,0.00,Wunderground v.1.13,2013-02-28 21:44:00,
2013-02-28 16:49:00,36.8,26.1,30.02,West,273,8.0,11.0,65,0.00,,,0.00,Wunderground v.1.13,2013-02-28 21:49:00,
2013-02-28 16:54:00,36.8,26.1,30.02,SW,229,7.0,11.0,65,0.00,,,0.00,Wunderground v.1.13,2013-02-28 21:54:00,
2013-02-28 17:00:00,36.8,26.1,30.02,West,269,6.0,11.0,65,0.00,,,0.00,Wunderground v.1.13,2013-02-28 22:00:00,
2013-02-28 17:05:00,36.8,25.8,30.03,West,279,7.0,7.0,64,0.00,,,0.00,Wunderground v.1.13,2013-02-28 22:05:00,
2013-02-28 17:10:00,36.8,26.1,30.03,West,276,7.0,11.0,65,0.00,,,0.00,Wunderground v.1.13,2013-02-28 22:10:00,
2013-02-28 17:15:00,36.8,26.1,30.03,WNW,294,7.0,11.0,65,0.00,,,0.00,Wunderground v.1.13,2013-02-28 22:15:00,
2013-02-28 17:20:00,36.8,26.1,30.04,West,277,7.0,11.0,65,0.00,,,0.00,Wunderground v.1.13,2013-02-28 22:20:00,
2013-02-28 17:26:00,36.7,26.0,30.04,West,267,8.0,11.0,65,0.00,,,0.00,Wunderground v.1.13,2013-02-28 22:26:00,
2013-02-28 17:31:00,36.6,25.9,30.04,West,281,7.0,11.0,65,0.00,,,0.00,Wunderground v.1.13,2013-02-28 22:31:00,
2013-02-28 17:36:00,36.6,25.9,30.04,West,276,7.0,11.0,65,0.00,,,0.00,Wunderground v.1.13,2013-02-28 22:36:00,
2013-02-28 17:41:00,36.5,25.8,30.04,West,275,7.0,11.0,65,0.00,,,0.00,Wunderground v.1.13,2013-02-28 22:41:00,
2013-02-28 17:47:00,36.4,25.7,30.04,WNW,286,7.0,11.0,65,0.00,,,0.00,Wunderground v.1.13,2013-02-28 22:47:00,
2013-02-28 17:52:00,36.3,25.7,30.04,West,277,7.0,11.0,65,0.00,,,0.00,Wunderground v.1.13,2013-02-28 22:52:00,
2013-02-28 17:57:00,36.3,26.0,30.05,WNW,290,6.0,11.0,66,0.00,,,0.00,Wunderground v.1.13,2013-02-28 22:57:00,
2013-02-28 18:02:00,36.3,25.7,30.05,West,278,5.0,11.0,65,0.00,,,0.00,Wunderground v.1.13,2013-02-28 23:02:00,
2013-02-28 18:08:00,36.2,25.9,30.05,West,276,5.0,11.0,66,0.00,,,0.00,Wunderground v.1.13,2013-02-28 23:08:00,
2013-02-28 18:14:00,36.2,25.9,30.05,West,275,5.0,11.0,66,0.00,,,0.00,Wunderground v.1.13,2013-02-28 23:14:00,
2013-02-28 18:19:00,36.2,25.9,30.05,West,265,5.0,11.0,66,0.00,,,0.00,Wunderground v.1.13,2013-02-28 23:19:00,
2013-02-28 18:24:00,36.1,26.2,30.05,West,268,7.0,11.0,67,0.00,,,0.00,Wunderground v.1.13,2013-02-28 23:24:00,
2013-02-28 18:29:00,36.1,26.2,30.05,West,274,7.0,11.0,67,0.00,,,0.00,Wunderground v.1.13,2013-02-28 23:29:00,
2013-02-28 18:34:00,36.0,26.1,30.05,WNW,284,6.0,11.0,67,0.00,,,0.00,Wunderground v.1.13,2013-02-28 23:34:00,
2013-02-28 18:40:00,36.0,26.5,30.06,WNW,286,5.0,5.0,68,0.00,,,0.00,Wunderground v.1.13,2013-02-28 23:40:00,
2013-02-28 18:45:00,36.0,26.5,30.06,WNW,283,5.0,11.0,68,0.00,,,0.00,Wunderground v.1.13,2013-02-28 23:45:00,
2013-02-28 18:50:00,35.9,26.4,30.06,WNW,288,6.0,11.0,68,0.00,,,0.00,Wunderground v.1.13,2013-02-28 23:50:00,
2013-02-28 18:55:00,35.9,26.4,30.06,West,272,6.0,6.0,68,0.00,,,0.00,Wunderground v.1.13,2013-02-28 23:55:00,
2013-02-28 19:00:00,35.9,26.7,30.06,West,272,5.0,5.0,69,0.00,,,0.00,Wunderground v.1.13,2013-03-01 00:00:00,
2013-02-28 19:06:00,35.9,26.7,30.06,West,273,5.0,11.0,69,0.00,,,0.00,Wunderground v.1.13,2013-03-01 00:06:00,
2013-02-28 19:11:00,35.8,26.6,30.06,West,277,6.0,6.0,69,0.00,,,0.00,Wunderground v.1.13,2013-03-01 00:11:00,
2013-02-28 19:16:00,35.8,26.6,30.06,West,281,6.0,11.0,69,0.00,,,0.00,Wunderground v.1.13,2013-03-01 00:16:00,
2013-02-28 19:22:00,35.8,26.6,30.06,West,279,6.0,11.0,69,0.00,,,0.00,Wunderground v.1.13,2013-03-01 00:22:00,
2013-02-28 19:28:00,35.7,26.5,30.06,West,276,6.0,11.0,69,0.00,,,0.00,Wunderground v.1.13,2013-03-01 00:28:00,
2013-02-28 19:33:00,35.7,26.5,30.06,West,279,6.0,11.0,69,0.00,,,0.00,Wunderground v.1.13,2013-03-01 00:33:00,
2013-02-28 19:38:00,35.7,26.9,30.06,West,274,5.0,11.0,70,0.00,,,0.00,Wunderground v.1.13,2013-03-01 00:38:00,
2013-02-28 19:43:00,35.6,26.8,30.06,West,275,5.0,11.0,70,0.00,,,0.00,Wunderground v.1.13,2013-03-01 00:43:00,
2013-02-28 19:49:00,35.6,26.8,30.06,West,275,5.0,11.0,70,0.00,,,0.00,Wunderground v.1.13,2013-03-01 00:49:00,
2013-02-28 19:54:00,35.5,27.0,30.06,WNW,290,5.0,11.0,71,0.00,,,0.00,Wunderground v.1.13,2013-03-01 00:54:00,
2013-02-28 19:59:00,35.5,27.0,30.06,West,277,5.0,11.0,71,0.00,,,0.00,Wunderground v.1.13,2013-03-01 00:59:00,
2013-02-28 20:04:00,35.5,27.0,30.06,West,275,6.0,11.0,71,0.00,,,0.00,Wunderground v.1.13,2013-03-01 01:04:00,
2013-02-28 20:10:00,35.4,27.3,30.06,West,275,4.0,11.0,72,0.00,,,0.00,Wunderground v.1.13,2013-03-01 01:10:00,
2013-02-28 20:16:00,35.4,26.9,30.06,WNW,290,5.0,11.0,71,0.00,,,0.00,Wunderground v.1.13,2013-03-01 01:16:00,
2013-02-28 20:21:00,35.3,27.2,30.06,West,271,6.0,11.0,72,0.00,,,0.00,Wunderground v.1.13,2013-03-01 01:21:00,
2013-02-28 20:26:00,35.3,27.2,30.06,West,271,5.0,11.0,72,0.00,,,0.00,Wunderground v.1.13,2013-03-01 01:26:00,
2013-02-28 20:32:00,35.3,27.2,30.06,WNW,288,5.0,11.0,72,0.00,,,0.00,Wunderground v.1.13,2013-03-01 01:32:00,
2013-02-28 20:37:00,35.2,27.1,30.06,West,277,6.0,11.0,72,0.00,,,0.00,Wunderground v.1.13,2013-03-01 01:37:00,
2013-02-28 20:42:00,35.2,27.1,30.07,West,273,6.0,11.0,72,0.00,,,0.00,Wunderground v.1.13,2013-03-01 01:42:00,
2013-02-28 20:47:00,35.2,27.1,30.07,West,279,6.0,11.0,72,0.00,,,0.00,Wunderground v.1.13,2013-03-01 01:47:00,
2013-02-28 20:52:00,35.1,27.0,30.06,WNW,290,6.0,11.0,72,0.00,,,0.00,Wunderground v.1.13,2013-03-01 01:52:00,
2013-02-28 20:58:00,35.1,27.0,30.06,WNW,284,6.0,11.0,72,0.00,,,0.00,Wunderground v.1.13,2013-03-01 01:58:00,
2013-02-28 21:03:00,35.1,27.3,30.07,WNW,282,4.0,11.0,73,0.00,,,0.00,Wunderground v.1.13,2013-03-01 02:03:00,
2013-02-28 21:08:00,35.1,27.3,30.07,West,273,4.0,11.0,73,0.00,,,0.00,Wunderground v.1.13,2013-03-01 02:08:00,
2013-02-28 21:13:00,35.0,27.2,30.07,West,273,5.0,11.0,73,0.00,,,0.00,Wunderground v.1.13,2013-03-01 02:13:00,
2013-02-28 21:18:00,35.0,27.2,30.08,West,275,5.0,11.0,73,0.00,,,0.00,Wunderground v.1.13,2013-03-01 02:18:00,
2013-02-28 21:23:00,35.0,27.2,30.07,West,275,5.0,11.0,73,0.00,,,0.00,Wunderground v.1.13,2013-03-01 02:23:00,
2013-02-28 21:28:00,35.0,27.2,30.07,West,273,4.0,11.0,73,0.00,,,0.00,Wunderground v.1.13,2013-03-01 02:28:00,
2013-02-28 21:34:00,34.9,27.5,30.07,West,273,4.0,11.0,74,0.00,,,0.00,Wunderground v.1.13,2013-03-01 02:34:00,
2013-02-28 21:39:00,34.9,27.1,30.07,West,271,5.0,11.0,73,0.00,,,0.00,Wunderground v.1.13,2013-03-01 02:39:00,
2013-02-28 21:44:00,34.9,27.5,30.07,West,281,6.0,11.0,74,0.00,,,0.00,Wunderground v.1.13,2013-03-01 02:44:00,
2013-02-28 21:49:00,34.9,27.5,30.07,West,279,4.0,11.0,74,0.00,,,0.00,Wunderground v.1.13,2013-03-01 02:49:00,
2013-02-28 21:55:00,34.9,27.5,30.07,West,279,3.0,11.0,74,0.00,,,0.00,Wunderground v.1.13,2013-03-01 02:55:00,
2013-02-28 22:00:00,34.8,27.4,30.07,West,279,4.0,4.0,74,0.00,,,0.00,Wunderground v.1.13,2013-03-01 03:00:00,
2013-02-28 22:05:00,34.8,27.4,30.07,West,281,4.0,11.0,74,0.00,,,0.00,Wunderground v.1.13,2013-03-01 03:05:00,
2013-02-28 22:11:00,34.8,27.4,30.08,West,278,5.0,11.0,74,0.00,,,0.00,Wunderground v.1.13,2013-03-01 03:11:00,
2013-02-28 22:16:00,34.8,27.4,30.07,West,278,4.0,11.0,74,0.00,,,0.00,Wunderground v.1.13,2013-03-01 03:16:00,
2013-02-28 22:21:00,34.8,27.4,30.07,West,278,4.0,11.0,74,0.00,,,0.00,Wunderground v.1.13,2013-03-01 03:21:00,
2013-02-28 22:26:00,34.7,27.3,30.08,WNW,288,4.0,11.0,74,0.00,,,0.00,Wunderground v.1.13,2013-03-01 03:26:00,
2013-02-28 22:31:00,34.7,27.3,30.08,West,280,5.0,11.0,74,0.00,,,0.00,Wunderground v.1.13,2013-03-01 03:31:00,
2013-02-28 22:37:00,34.7,27.6,30.08,West,279,4.0,11.0,75,0.00,,,0.00,Wunderground v.1.13,2013-03-01 03:37:00,
2013-02-28 22:42:00,34.7,27.6,30.08,West,279,3.0,11.0,75,0.00,,,0.00,Wunderground v.1.13,2013-03-01 03:42:00,
2013-02-28 22:47:00,34.7,27.6,30.08,West,279,3.0,11.0,75,0.00,,,0.00,Wunderground v.1.13,2013-03-01 03:47:00,
2013-02-28 22:52:00,34.7,27.6,30.08,West,281,4.0,11.0,75,0.00,,,0.00,Wunderground v.1.13,2013-03-01 03:52:00,
2013-02-28 22:57:00,34.7,27.6,30.08,West,270,5.0,12.0,75,0.00,,,0.00,Wunderground v.1.13,2013-03-01 03:57:00,
2013-02-28 23:03:00,34.7,27.9,30.08,West,275,7.0,11.0,76,0.00,,,0.00,Wunderground v.1.13,2013-03-01 04:03:00,
2013-02-28 23:08:00,34.6,27.8,30.08,West,272,8.0,12.0,76,0.00,,,0.00,Wunderground v.1.13,2013-03-01 04:08:00,
2013-02-28 23:13:00,34.6,27.8,30.07,West,268,8.0,11.0,76,0.00,,,0.00,Wunderground v.1.13,2013-03-01 04:13:00,
2013-02-28 23:19:00,34.5,28.0,30.07,West,272,6.0,11.0,77,0.00,,,0.00,Wunderground v.1.13,2013-03-01 04:19:00,
2013-02-28 23:24:00,34.4,27.9,30.07,West,276,6.0,11.0,77,0.00,,,0.00,Wunderground v.1.13,2013-03-01 04:24:00,
2013-02-28 23:29:00,34.4,27.9,30.07,West,277,6.0,11.0,77,0.00,,,0.00,Wunderground v.1.13,2013-03-01 04:29:00,
2013-02-28 23:35:00,34.4,28.2,30.07,West,279,5.0,11.0,78,0.00,,,0.00,Wunderground v.1.13,2013-03-01 04:35:00,
2013-02-28 23:40:00,34.4,28.2,30.07,West,277,4.0,4.0,78,0.00,,,0.00,Wunderground v.1.13,2013-03-01 04:40:00,
2013-02-28 23:45:00,34.4,28.2,30.07,WNW,288,4.0,11.0,78,0.00,,,0.00,Wunderground v.1.13,2013-03-01 04:45:00,
2013-02-28 23:51:00,34.4,28.2,30.07,WNW,286,5.0,6.0,78,0.00,,,0.00,Wunderground v.1.13,2013-03-01 04:51:00,
2013-02-28 23:56:00,34.4,28.2,30.07,West,281,6.0,11.0,78,0.00,,,0.00,Wunderground v.1.13,2013-03-01 04:56:00,